Content
SEND FEEDBACK

Daily
Averages
Monthly
Summary
United States of America

NEW YORK - CENTRAL PARK, NEW YORK


Home > North America > United States > New York
Elevation: 4 meters     Latitude: 40 47N     Longitude: 073 58W

WEATHER
 
SELECT A DAY
Number of Records: 151,169;   Date Range: 11/1/95 - 10/20/14
 
SHARE

PRINT THIS DATA

[ ← Previous Day ]
WEATHER ALMANAC - 7 AUGUST, 2014
[ Next Day → ]
[ °F ]   °C
Weather ElementAverageHighLow
Temperature23.4 °C28.3 °C (3:51 pm)18.9 °C (5:51 am)
Dewpoint10.6 °C13.3 °C (3:51 pm)7.8 °C (5:51 pm)
Humidity45.4 %63 % (5:51 am)30 % (4:51 pm)
Barometer1013.9 hPa1016.6 hPa (11:51 pm)1012.5 hPa (1:51 am)
Wind Speed7.1 km/h16.7 km/h (4:51 pm)
Wind Gust35.2 km/h (6:51 pm)
Weather ElementAverage
Visibility16.1 km
Wind DirectionENE (78.8 °)

Weather ElementTotal
Precipitation---
Cooling Degree Days5.3 (Base 18.3)
Growing Degree Days13.6 (Base 10)
Averaged from 24 records on 7 August, 2014
WEATHER CONDITIONS BREAKOUT
WIND DIRECTION BREAKOUT
WEATHER BY HOUR - 7 AUGUST, 2014
[ °F ]   °C
Local TimeTemperatureDewpointHumidityBarometerVisibilityWind DirectionWind SpeedGust SpeedPrecipitationEventsConditions
12:51 AM21.7 °C13.3 °C59 %1012.5 hPa16.1 kmNNW (340°)5.6 km/hClear
1:51 AM21.7 °C12.2 °C55 %1012.9 hPa16.1 kmVariable5.6 km/hClear
2:51 AM21.1 °C12.2 °C57 %1012.9 hPa16.1 kmWNW (300°)11.1 km/hClear
3:51 AM20.6 °C11.7 °C57 %1012.9 hPa16.1 kmVariable9.3 km/hClear
4:51 AM19.4 °C11.7 °C61 %1012.9 hPa16.1 kmCalmClear
5:51 AM18.9 °C11.7 °C63 %1013.2 hPa16.1 kmVariable7.4 km/hClear
6:51 AM18.9 °C11.1 °C60 %1013.9 hPa16.1 kmCalmClear
7:51 AM19.4 °C11.1 °C59 %1013.9 hPa16.1 kmVariable5.6 km/hClear
8:51 AM20.6 °C11.1 °C54 %1014.6 hPa16.1 kmWNW (290°)7.4 km/hClear
9:51 AM22.8 °C11.7 °C49 %1013.9 hPa16.1 kmVariable5.6 km/hClear
10:51 AM24.4 °C12.8 °C48 %1013.9 hPa16.1 kmVariable7.4 km/hClear
11:51 AM26.7 °C11.7 °C39 %1013.9 hPa16.1 kmVariable5.6 km/hClear
12:51 PM27.2 °C11.7 °C38 %1013.5 hPa16.1 kmVariable5.6 km/hPartly Cloudy
1:51 PM27.8 °C11.7 °C37 %1013.2 hPa16.1 kmVariable9.3 km/hScattered Clouds
2:51 PM28.3 °C11.1 °C34 %1012.9 hPa16.1 kmNorthClear
3:51 PM27.2 °C9.4 °C33 %1012.9 hPa16.1 kmWNW (300°)13 km/hScattered Clouds
4:51 PM27.2 °C8.3 °C30 %1012.9 hPa16.1 kmWNW (300°)16.7 km/hScattered Clouds
5:51 PM26.7 °C7.8 °C30 %1013.2 hPa16.1 kmVariable9.3 km/h33.3 km/hMostly Cloudy
6:51 PM26.1 °C8.3 °C32 %1013.9 hPa16.1 kmNorth (360°)13 km/h35.2 km/hPartly Cloudy
7:51 PM25 °C7.8 °C33 %1014.6 hPa16.1 kmVariable5.6 km/hScattered Clouds
8:51 PM23.9 °C7.8 °C36 %1015.6 hPa16.1 kmVariable11.1 km/hClear
9:51 PM23.3 °C8.3 °C38 %1015.9 hPa16.1 kmCalmClear
10:51 PM22.2 °C8.9 °C43 %1016.3 hPa16.1 kmCalmClear
11:51 PM21.7 °C9.4 °C45 %1016.6 hPa16.1 kmVariable7.4 km/hClear
Hourly data recorded from KNYC, located 0 kilometers away from New York - Central Park, New York







STORIES FROM OUR PARTNERS